| time (UTC) | temp C | wind direction | speed KPH | gust KPH | rain 1hr cm | rain 24hr cm | rain mn cm | humidity % | barometer mb |
| 20260903074619 | 14 | 205 | 0.0 | 0.0 | 0.00 | 0.00 | 0.00 | 46 | 1014.0 |
| 20260903073649 | 14 | 205 | 0.0 | 0.0 | 0.00 | 0.00 | 0.00 | 46 | 1014.0 |
| 20260903072623 | 14 | 205 | 0.0 | 0.0 | 0.00 | 0.00 | 0.00 | 48 | 1014.0 |
| 20260903071612 | 14 | 205 | 0.0 | 4.8 | 0.00 | 0.00 | 0.00 | 45 | 1013.9 |
| 20260903070622 | 14 | 323 | 3.2 | 6.4 | 0.00 | 0.00 | 0.00 | 44 | 1013.9 |
| 20260903065623 | 13 | 251 | 0.0 | 0.0 | 0.00 | 0.00 | 0.00 | 42 | 1014.0 |
| 20260903064618 | 13 | 294 | 0.0 | 3.2 | 0.00 | 0.00 | 0.00 | 43 | 1014.1 |
| 20260903063628 | 14 | 294 | 3.2 | 4.8 | 0.00 | 0.00 | 0.00 | 45 | 1013.9 |
| 20260903062617 | 14 | 12 | 0.0 | 0.0 | 0.00 | 0.00 | 0.00 | 46 | 1013.8 |
| 20260903061612 | 14 | 12 | 1.6 | 6.4 | 0.00 | 0.00 | 0.00 | 45 | 1013.8 |
| 20260903060631 | 13 | 344 | 0.0 | 0.0 | 0.00 | 0.00 | 0.00 | 47 | 1013.7 |
| 20260903055631 | 13 | 344 | 0.0 | 0.0 | 0.00 | 0.00 | 0.00 | 47 | 1013.7 |
| 20260903054622 | 14 | 344 | 0.0 | 0.0 | 0.00 | 0.00 | 0.00 | 47 | 1013.6 |
| 20260903053613 | 15 | 344 | 0.0 | 4.8 | 0.00 | 0.00 | 0.00 | 47 | 1013.6 |
| 20260903052628 | 16 | 355 | 1.6 | 4.8 | 0.00 | 0.00 | 0.00 | 41 | 1013.5 |
| 20260903051617 | 16 | 63 | 0.0 | 16.1 | 0.00 | 0.00 | 0.00 | 34 | 1013.5 |
| 20260903050628 | 16 | 91 | 9.7 | 12.9 | 0.00 | 0.00 | 0.00 | 33 | 1013.4 |
| 20260903045613 | 16 | 115 | 9.7 | 12.9 | 0.00 | 0.00 | 0.00 | 33 | 1013.4 |
| 20260903044644 | 15 | 124 | 8.0 | 14.5 | 0.00 | 0.00 | 0.00 | 35 | 1013.4 |
| 20260903043614 | 15 | 126 | 11.3 | 14.5 | 0.00 | 0.00 | 0.00 | 37 | 1013.5 |
| 20260903042623 | 15 | 117 | 8.0 | 12.9 | 0.00 | 0.00 | 0.00 | 37 | 1013.5 |
| 20260903041618 | 15 | 119 | 8.0 | 12.9 | 0.00 | 0.00 | 0.00 | 37 | 1013.6 |
| 20260903040630 | 15 | 119 | 9.7 | 12.9 | 0.00 | 0.00 | 0.00 | 36 | 1013.4 |
| 20260903035631 | 15 | 121 | 11.3 | 14.5 | 0.00 | 0.00 | 0.00 | 36 | 1013.5 |
| 20260903034642 | 15 | 120 | 8.0 | 12.9 | 0.00 | 0.00 | 0.00 | 36 | 1013.4 |
| 20260903033613 | 16 | 117 | 9.7 | 16.1 | 0.00 | 0.00 | 0.00 | 35 | 1013.2 |
| 20260903032628 | 16 | 115 | 9.7 | 16.1 | 0.00 | 0.00 | 0.00 | 34 | 1013.3 |
| 20260903031619 | 16 | 115 | 11.3 | 14.5 | 0.00 | 0.00 | 0.00 | 34 | 1013.1 |
| 20260903030631 | 16 | 121 | 11.3 | 14.5 | 0.00 | 0.00 | 0.00 | 34 | 1013.0 |
| 20260903025617 | 17 | 125 | 9.7 | 12.9 | 0.00 | 0.00 | 0.00 | 34 | 1013.0 |
| 20260903024628 | 17 | 131 | 8.0 | 11.3 | 0.00 | 0.00 | 0.00 | 33 | 1012.8 |
| 20260903023620 | 17 | 116 | 8.0 | 11.3 | 0.00 | 0.00 | 0.00 | 34 | 1012.8 |
| 20260903022631 | 18 | 129 | 6.4 | 11.3 | 0.00 | 0.00 | 0.00 | 34 | 1012.8 |
| 20260903021626 | 18 | 118 | 6.4 | 11.3 | 0.00 | 0.00 | 0.00 | 34 | 1012.8 |
| 20260903020618 | 18 | 126 | 6.4 | 11.3 | 0.00 | 0.00 | 0.00 | 33 | 1012.8 |
| 20260903015621 | 20 | 142 | 1.6 | 3.2 | 0.00 | 0.00 | 0.00 | 31 | 1013.0 |
| 20260903014631 | 20 | 142 | 0.0 | 0.0 | 0.00 | 0.00 | 0.00 | 30 | 1012.9 |
| 20260903013626 | 20 | 142 | 0.0 | 4.8 | 0.00 | 0.00 | 0.00 | 30 | 1013.0 |
| 20260903012616 | 20 | 142 | 3.2 | 4.8 | 0.00 | 0.00 | 0.00 | 30 | 1013.0 |
| 20260903011626 | 20 | 141 | 3.2 | 6.4 | 0.00 | 0.00 | 0.00 | 29 | 1013.1 |
| 20260903010637 | 21 | 310 | 0.0 | 3.2 | 0.00 | 0.00 | 0.00 | 30 | 1013.2 |
| 20260903005622 | 21 | 310 | 0.0 | 9.7 | 0.00 | 0.00 | 0.00 | 31 | 1013.2 |
| 20260903004632 | 21 | 223 | 1.6 | 4.8 | 0.00 | 0.00 | 0.00 | 31 | 1013.3 |
| 20260903003620 | 21 | 219 | 0.0 | 4.8 | 0.00 | 0.00 | 0.00 | 32 | 1013.2 |
| 20260903002651 | 21 | 279 | 0.0 | 4.8 | 0.00 | 0.00 | 0.00 | 32 | 1013.2 |
| 20260903001624 | 22 | 286 | 3.2 | 11.3 | 0.00 | 0.00 | 0.00 | 30 | 1013.2 |
| 20260903000617 | 22 | 275 | 6.4 | 12.9 | 0.00 | 0.00 | 0.00 | 29 | 1013.2 |
| 20260902235620 | 23 | 101 | 4.8 | 11.3 | 0.00 | 0.00 | 0.00 | 27 | 1013.2 |
| 20260902234631 | 23 | 157 | 8.0 | 17.7 | 0.00 | 0.00 | 0.00 | 26 | 1013.2 |
| 20260902233626 | 23 | 171 | 4.8 | 19.3 | 0.00 | 0.00 | 0.00 | 26 | 1013.1 |
| 20260902232617 | 23 | 173 | 9.7 | 17.7 | 0.00 | 0.00 | 0.00 | 26 | 1013.2 |
| 20260902231649 | 23 | 165 | 11.3 | 19.3 | 0.00 | 0.00 | 0.00 | 27 | 1013.2 |
| 20260902230620 | 23 | 213 | 4.8 | 16.1 | 0.00 | 0.00 | 0.00 | 27 | 1013.0 |
| 20260902225627 | 23 | 71 | 9.7 | 22.5 | 0.00 | 0.00 | 0.00 | 27 | 1013.0 |
| 20260902224618 | 23 | 186 | 4.8 | 16.1 | 0.00 | 0.00 | 0.00 | 28 | 1013.0 |
| 20260902223631 | 23 | 98 | 9.7 | 25.7 | 0.00 | 0.00 | 0.00 | 28 | 1013.0 |
| 20260902222622 | 23 | 127 | 12.9 | 25.7 | 0.00 | 0.00 | 0.00 | 26 | 1013.2 |
| 20260902221617 | 23 | 105 | 8.0 | 22.5 | 0.00 | 0.00 | 0.00 | 26 | 1013.2 |
| 20260902220628 | 23 | 45 | 9.7 | 25.7 | 0.00 | 0.00 | 0.00 | 27 | 1013.2 |
| 20260902215630 | 23 | 320 | 12.9 | 27.4 | 0.00 | 0.00 | 0.00 | 27 | 1013.2 |
| 20260902214621 | 23 | 147 | 11.3 | 29.0 | 0.00 | 0.00 | 0.00 | 28 | 1013.1 |
| 20260902213616 | 23 | 270 | 11.3 | 22.5 | 0.00 | 0.00 | 0.00 | 29 | 1013.1 |
| 20260902212629 | 24 | 128 | 8.0 | 17.7 | 0.00 | 0.00 | 0.00 | 28 | 1013.2 |
| 20260902211620 | 23 | 302 | 9.7 | 22.5 | 0.00 | 0.00 | 0.00 | 28 | 1013.2 |
| 20260902210615 | 23 | 155 | 9.7 | 19.3 | 0.00 | 0.00 | 0.00 | 29 | 1013.2 |
| 20260902205618 | 23 | 167 | 11.3 | 19.3 | 0.00 | 0.00 | 0.00 | 30 | 1013.4 |
| 20260902204629 | 23 | 149 | 11.3 | 25.7 | 0.00 | 0.00 | 0.00 | 30 | 1013.4 |
| 20260902203619 | 23 | 153 | 12.9 | 29.0 | 0.00 | 0.00 | 0.00 | 28 | 1013.4 |
| 20260902202613 | 23 | 167 | 6.4 | 14.5 | 0.00 | 0.00 | 0.00 | 31 | 1013.3 |
| 20260902201624 | 23 | 153 | 4.8 | 25.7 | 0.00 | 0.00 | 0.00 | 29 | 1013.6 |
| 20260902200646 | 22 | 130 | 9.7 | 20.9 | 0.00 | 0.00 | 0.00 | 31 | 1013.6 |
| 20260902195620 | 23 | 221 | 11.3 | 22.5 | 0.00 | 0.00 | 0.00 | 31 | 1013.7 |
| 20260902194624 | 23 | 176 | 12.9 | 20.9 | 0.00 | 0.00 | 0.00 | 31 | 1013.7 |
| 20260902193614 | 23 | 150 | 17.7 | 29.0 | 0.00 | 0.00 | 0.00 | 28 | 1013.9 |
| 20260902192623 | 23 | 148 | 11.3 | 35.4 | 0.00 | 0.00 | 0.00 | 31 | 1014.0 |
| 20260902191653 | 23 | 136 | 14.5 | 22.5 | 0.00 | 0.00 | 0.00 | 28 | 1014.1 |
| 20260902190625 | 23 | 144 | 9.7 | 29.0 | 0.00 | 0.00 | 0.00 | 27 | 1014.0 |
| 20260902185626 | 23 | 151 | 9.7 | 22.5 | 0.00 | 0.00 | 0.00 | 29 | 1014.2 |
| 20260902184620 | 22 | 27 | 9.7 | 22.5 | 0.00 | 0.00 | 0.00 | 30 | 1014.3 |
| 20260902183630 | 23 | 255 | 11.3 | 30.6 | 0.00 | 0.00 | 0.00 | 28 | 1014.5 |
| 20260902182639 | 23 | 123 | 12.9 | 37.0 | 0.00 | 0.00 | 0.00 | 27 | 1014.5 |
| 20260902181651 | 23 | 144 | 12.9 | 30.6 | 0.00 | 0.00 | 0.00 | 27 | 1014.5 |
| 20260902180625 | 22 | 159 | 14.5 | 33.8 | 0.00 | 0.00 | 0.00 | 28 | 1014.7 |
| 20260902175626 | 22 | 190 | 8.0 | 22.5 | 0.00 | 0.00 | 0.00 | 29 | 1014.7 |
| 20260902174615 | 22 | 95 | 9.7 | 40.2 | 0.00 | 0.00 | 0.00 | 29 | 1014.9 |
| 20260902173625 | 22 | 143 | 12.9 | 29.0 | 0.00 | 0.00 | 0.00 | 29 | 1014.9 |
| 20260902172618 | 22 | 112 | 8.0 | 16.1 | 0.00 | 0.00 | 0.00 | 30 | 1014.9 |
| 20260902171629 | 21 | 83 | 11.3 | 38.6 | 0.00 | 0.00 | 0.00 | 30 | 1015.1 |
| 20260902170620 | 21 | 42 | 4.8 | 22.5 | 0.00 | 0.00 | 0.00 | 30 | 1015.0 |
| 20260902165621 | 22 | 176 | 9.7 | 19.3 | 0.00 | 0.00 | 0.00 | 30 | 1014.9 |
| 20260902164615 | 22 | 204 | 12.9 | 25.7 | 0.00 | 0.00 | 0.00 | 30 | 1015.0 |
| 20260902163645 | 21 | 250 | 11.3 | 22.5 | 0.00 | 0.00 | 0.00 | 31 | 1014.9 |
| 20260902162615 | 21 | 130 | 16.1 | 41.8 | 0.00 | 0.00 | 0.00 | 31 | 1014.8 |
| 20260902161620 | 20 | 95 | 14.5 | 30.6 | 0.00 | 0.00 | 0.00 | 34 | 1014.7 |
| 20260902160633 | 20 | 167 | 22.5 | 35.4 | 0.00 | 0.00 | 0.00 | 34 | 1014.6 |
| 20260902155613 | 20 | 84 | 12.9 | 19.3 | 0.00 | 0.00 | 0.00 | 43 | 1014.6 |
| 20260902154623 | 20 | 135 | 14.5 | 30.6 | 0.00 | 0.00 | 0.00 | 42 | 1014.6 |
| 20260902153612 | 20 | 147 | 16.1 | 33.8 | 0.00 | 0.00 | 0.00 | 40 | 1014.6 |
| 20260902152626 | 20 | 178 | 12.9 | 24.1 | 0.00 | 0.00 | 0.00 | 43 | 1014.7 |
| 20260902151613 | 19 | 119 | 14.5 | 20.9 | 0.00 | 0.00 | 0.00 | 45 | 1014.8 |
| 20260902150623 | 18 | 136 | 14.5 | 20.9 | 0.00 | 0.00 | 0.00 | 46 | 1014.7 |
| 20260902145626 | 18 | 117 | 14.5 | 22.5 | 0.00 | 0.00 | 0.00 | 48 | 1014.7 |
| 20260902144620 | 18 | 163 | 11.3 | 24.1 | 0.00 | 0.00 | 0.00 | 50 | 1014.8 |
| 20260902143632 | 17 | 132 | 11.3 | 19.3 | 0.00 | 0.00 | 0.00 | 51 | 1014.7 |
| 20260902142623 | 15 | 103 | 14.5 | 22.5 | 0.00 | 0.00 | 0.00 | 59 | 1014.6 |
| 20260902141614 | 13 | 309 | 1.6 | 6.4 | 0.00 | 0.00 | 0.00 | 69 | 1014.7 |
| 20260902140631 | 13 | 178 | 8.0 | 14.5 | 0.00 | 0.00 | 0.00 | 68 | 1014.7 |
| 20260902135614 | 11 | 276 | 0.0 | 3.2 | 0.00 | 0.00 | 0.00 | 75 | 1014.8 |
| 20260902134625 | 11 | 275 | 1.6 | 12.9 | 0.00 | 0.00 | 0.00 | 75 | 1014.8 |
| 20260902133620 | 11 | 263 | 4.8 | 16.1 | 0.00 | 0.00 | 0.00 | 75 | 1014.9 |
| 20260902132627 | 11 | 69 | 0.0 | 4.8 | 0.00 | 0.00 | 0.00 | 77 | 1014.9 |
| 20260902131613 | 11 | 68 | 0.0 | 9.7 | 0.00 | 0.00 | 0.00 | 77 | 1014.9 |
| 20260902130636 | 10 | 250 | 0.0 | 0.0 | 0.00 | 0.00 | 0.00 | 79 | 1014.9 |
| 20260902125639 | 10 | 250 | 0.0 | 0.0 | 0.00 | 0.00 | 0.00 | 78 | 1014.8 |
| 20260902124614 | 10 | 250 | 0.0 | 0.0 | 0.00 | 0.00 | 0.00 | 79 | 1014.6 |
| 20260902123621 | 10 | 247 | 1.6 | 6.4 | 0.00 | 0.00 | 0.00 | 78 | 1014.6 |
| 20260902122650 | 11 | 230 | 1.6 | 8.0 | 0.00 | 0.00 | 0.00 | 77 | 1014.7 |
| 20260902121629 | 11 | 194 | 0.0 | 3.2 | 0.00 | 0.00 | 0.00 | 77 | 1014.7 |
| 20260902120618 | 11 | 196 | 1.6 | 6.4 | 0.00 | 0.00 | 0.00 | 75 | 1014.8 |
| 20260902115626 | 11 | 196 | 0.0 | 0.0 | 0.00 | 0.00 | 0.00 | 76 | 1014.9 |
| 20260902114617 | 11 | 196 | 0.0 | 0.0 | 0.00 | 0.00 | 0.00 | 76 | 1014.9 |
| 20260902113628 | 11 | 196 | 0.0 | 0.0 | 0.00 | 0.00 | 0.00 | 75 | 1014.9 |
| 20260902112623 | 12 | 169 | 0.0 | 0.0 | 0.00 | 0.00 | 0.00 | 74 | 1015.0 |
| 20260902111636 | 12 | 169 | 0.0 | 0.0 | 0.00 | 0.00 | 0.00 | 72 | 1015.1 |
| 20260902110626 | 12 | 166 | 0.0 | 0.0 | 0.00 | 0.00 | 0.00 | 72 | 1015.1 |
| 20260902105650 | 12 | 165 | 0.0 | 0.0 | 0.00 | 0.00 | 0.00 | 73 | 1015.1 |
| 20260902104620 | 12 | 167 | 0.0 | 0.0 | 0.00 | 0.00 | 0.00 | 73 | 1015.1 |
| 20260902103614 | 13 | 167 | 0.0 | 0.0 | 0.00 | 0.00 | 0.00 | 70 | 1015.1 |
| 20260902102624 | 13 | 116 | 0.0 | 0.0 | 0.00 | 0.00 | 0.00 | 69 | 1015.1 |
| 20260902101614 | 13 | 116 | 0.0 | 6.4 | 0.00 | 0.00 | 0.00 | 68 | 1015.1 |
| 20260902100629 | 13 | 116 | 6.4 | 11.3 | 0.00 | 0.00 | 0.00 | 68 | 1015.2 |
| 20260902095630 | 14 | 172 | 0.0 | 4.8 | 0.00 | 0.00 | 0.00 | 66 | 1015.3 |
| 20260902094620 | 15 | 172 | 0.0 | 8.0 | 0.00 | 0.00 | 0.00 | 62 | 1015.3 |
| 20260902093631 | 15 | 169 | 8.0 | 11.3 | 0.00 | 0.00 | 0.00 | 62 | 1015.2 |
| 20260902092625 | 15 | 184 | 6.4 | 14.5 | 0.00 | 0.00 | 0.00 | 61 | 1015.2 |
| 20260902091635 | 16 | 159 | 8.0 | 19.3 | 0.00 | 0.00 | 0.00 | 61 | 1015.1 |
| 20260902090623 | 15 | 126 | 11.3 | 24.1 | 0.00 | 0.00 | 0.00 | 62 | 1015.1 |
| 20260902085646 | 15 | 192 | 11.3 | 16.1 | 0.00 | 0.00 | 0.00 | 65 | 1015.2 |
| 20260902084616 | 13 | 111 | 6.4 | 14.5 | 0.00 | 0.00 | 0.00 | 72 | 1015.1 |
| 20260902083628 | 13 | 215 | 0.0 | 0.0 | 0.00 | 0.00 | 0.00 | 74 | 1015.2 |
| 20260902082616 | 12 | 215 | 0.0 | 0.0 | 0.00 | 0.00 | 0.00 | 75 | 1015.2 |
| 20260902081627 | 12 | 215 | 0.0 | 0.0 | 0.00 | 0.00 | 0.00 | 75 | 1015.2 |
| 20260902080637 | 13 | 215 | 0.0 | 0.0 | 0.00 | 0.00 | 0.00 | 74 | 1015.1 |
| 20260902075621 | 13 | 215 | 0.0 | 0.0 | 0.00 | 0.00 | 0.00 | 73 | 1015.1 |